Overview Statistics Trail Chart Weather Telemetry Raw packets
 

This is the latest recevied weather packets stored in our database for station/object DG1ROH. If no packets are shown the sender has not sent any weather packets the latest 10 day(s).

<< 154 155 156 157 158 159 160 >>
Time Temp. Humidity Pressure Rain* Wind** Luminosity Snow
1777371345 13.89° C 39% 1026 hPa 0 mm - 717 W/m² -
1777371224 13.33° C 35% 1026 hPa 0 mm - 719 W/m² -
1777371105 13.33° C 33% 1026.1 hPa 0 mm - 719 W/m² -
1777370990 13.33° C 35% 1026.1 hPa 0 mm - 705 W/m² -
1777370868 13.33° C 35% 1026.1 hPa 0 mm - 712 W/m² -
1777370747 13.33° C 35% 1026.1 hPa 0 mm - 712 W/m² -
1777370627 13.33° C 35% 1026.2 hPa 0 mm - 707 W/m² -
1777370503 13.33° C 34% 1026.1 hPa 0 mm - 708 W/m² -
1777370384 13.33° C 34% 1026.1 hPa 0 mm - 708 W/m² -
1777370262 12.78° C 35% 1026.1 hPa 0 mm - 707 W/m² -
1777370140 12.78° C 35% 1026.1 hPa 0 mm - 703 W/m² -
1777370018 12.78° C 33% 1026.1 hPa 0 mm - 705 W/m² -
1777369898 12.78° C 32% 1026.1 hPa 0 mm - 701 W/m² -
1777369778 12.78° C 33% 1026.2 hPa 0 mm - 700 W/m² -
1777369658 13.33° C 33% 1026.1 hPa 0 mm - 696 W/m² -
1777369538 12.78° C 33% 1026.1 hPa 0 mm - 696 W/m² -
1777369418 12.78° C 34% 1026.2 hPa 0 mm - 696 W/m² -
1777369297 12.78° C 33% 1026.1 hPa 0 mm - 691 W/m² -
1777369175 12.78° C 32% 1026.2 hPa 0 mm - 689 W/m² -
1777369055 12.78° C 34% 1026.3 hPa 0 mm - 687 W/m² -
1777368935 12.78° C 35% 1026.2 hPa 0 mm - 680 W/m² -
1777368816 12.78° C 36% 1026.1 hPa 0 mm - 680 W/m² -
1777368695 12.78° C 36% 1026.1 hPa 0 mm - 680 W/m² -
1777368575 12.78° C 34% 1026.1 hPa 0 mm - 679 W/m² -
1777368454 12.78° C 37% 1026.1 hPa 0 mm - 671 W/m² -

* Rain latest hour (hover to see other rain measurements)
** Current wind speed in m/s (hover to see current wind gust speed)